When you browse on this site, cookies collect data to enhance your experience and personalize the content and advertising you see.
Visit our Privacy Policy to learn more. By continuing to use the site, you agree to this use of cookies and data.
  • In Lithuania
  • List of Countries
  • For 7 days
  • Water Temperature
  • Satellite Maps
  • Weather Map
  • Weather Widgets
  • user-avatar
    Login

    Hourly Weather Dungarpur

    Today, 13 December, Thursday

    Time Temperature Precipitation Wind Pressure Humidity
    00:00 +18°C° 0 mm 2 mps 737 mmHg 37%
    01:00 +17°C° 0 mm 3 mps 736 mmHg 39%
    02:00 +17°C° 0 mm 3 mps 736 mmHg 40%
    03:00 +17°C° 0 mm 3 mps 737 mmHg 44%
    04:00 +16°C° 0 mm 3 mps 737 mmHg 47%
    05:00 +15°C° 0 mm 2 mps 737 mmHg 49%
    06:00 +16°C° 0 mm 3 mps 737 mmHg 48%
    07:00 +17°C° 0 mm 4 mps 738 mmHg 47%
    08:00 +17°C° 0 mm 4 mps 738 mmHg 47%
    09:00 +20°C° 0 mm 4 mps 738 mmHg 40%
    10:00 +22°C° 0 mm 5 mps 738 mmHg 33%
    11:00 +25°C° 0 mm 5 mps 739 mmHg 27%
    12:00 +25°C° 0 mm 5 mps 738 mmHg 24%
    13:00 +26°C° 0 mm 4 mps 737 mmHg 21%
    14:00 +26°C° 0 mm 4 mps 737 mmHg 19%
    15:00 +25°C° 0 mm 4 mps 737 mmHg 20%
    16:00 +24°C° 0 mm 3 mps 737 mmHg 22%
    17:00 +24°C° 0 mm 3 mps 737 mmHg 24%
    18:00 +21°C° 0 mm 3 mps 737 mmHg 26%
    19:00 +20°C° 0 mm 3 mps 737 mmHg 28%
    20:00 +19°C° 0 mm 3 mps 738 mmHg 30%
    21:00 +18°C° 0 mm 3 mps 738 mmHg 31%
    22:00 +18°C° 0 mm 3 mps 738 mmHg 32%
    23:00 +17°C° 0 mm 4 mps 738 mmHg 33%

    Tomorrow, 14 December, Friday

    Time Temperature Precipitation Wind Pressure Humidity
    00:00 +17°C° 0 mm 4 mps 738 mmHg 34%
    01:00 +15°C° 0 mm 4 mps 738 mmHg 35%
    02:00 +15°C° 0 mm 4 mps 738 mmHg 36%
    03:00 +14°C° 0 mm 4 mps 738 mmHg 38%
    04:00 +14°C° 0 mm 4 mps 738 mmHg 40%
    05:00 +14°C° 0 mm 4 mps 738 mmHg 41%
    06:00 +14°C° 0 mm 4 mps 738 mmHg 42%
    07:00 +15°C° 0 mm 5 mps 739 mmHg 43%
    08:00 +15°C° 0 mm 5 mps 739 mmHg 43%
    09:00 +17°C° 0 mm 5 mps 740 mmHg 39%
    10:00 +20°C° 0 mm 5 mps 740 mmHg 35%
    11:00 +23°C° 0 mm 6 mps 740 mmHg 31%
    12:00 +23°C° 0 mm 5 mps 739 mmHg 29%
    13:00 +25°C° 0 mm 5 mps 738 mmHg 26%
    14:00 +26°C° 0 mm 4 mps 738 mmHg 24%
    15:00 +25°C° 0 mm 4 mps 738 mmHg 26%
    16:00 +23°C° 0 mm 4 mps 737 mmHg 28%
    17:00 +24°C° 0 mm 3 mps 737 mmHg 30%
    18:00 +21°C° 0 mm 4 mps 737 mmHg 32%
    19:00 +20°C° 0 mm 4 mps 738 mmHg 34%
    20:00 +19°C° 0 mm 4 mps 738 mmHg 37%
    21:00 +18°C° 0 mm 4 mps 738 mmHg 38%
    22:00 +18°C° 0 mm 4 mps 738 mmHg 38%
    23:00 +17°C° 0 mm 4 mps 738 mmHg 39%

    Day after tomorrow, 15 December, Saturday

    Time Temperature Precipitation Wind Pressure Humidity
    00:00 +17°C° 0 mm 4 mps 738 mmHg 39%
    01:00 +15°C° 0 mm 4 mps 738 mmHg 39%
    02:00 +15°C° 0 mm 4 mps 738 mmHg 39%
    03:00 +14°C° 0 mm 4 mps 738 mmHg 39%
    04:00 +14°C° 0 mm 4 mps 738 mmHg 39%
    05:00 +14°C° 0 mm 4 mps 737 mmHg 39%
    06:00 +14°C° 0 mm 5 mps 738 mmHg 39%
    07:00 +15°C° 0 mm 5 mps 739 mmHg 39%
    08:00 +15°C° 0 mm 5 mps 739 mmHg 39%
    09:00 +17°C° 0 mm 5 mps 739 mmHg 36%
    10:00 +21°C° 0 mm 5 mps 739 mmHg 33%
    11:00 +23°C° 0 mm 5 mps 740 mmHg 30%
    12:00 +25°C° 0 mm 5 mps 739 mmHg 27%
    13:00 +26°C° 0 mm 4 mps 738 mmHg 25%
    14:00 +27°C° 0 mm 4 mps 737 mmHg 23%
    15:00 +26°C° 0 mm 3 mps 737 mmHg 24%
    16:00 +25°C° 0 mm 3 mps 737 mmHg 26%
    17:00 +24°C° 0 mm 3 mps 736 mmHg 28%
    18:00 +22°C° 0 mm 3 mps 737 mmHg 29%
    19:00 +21°C° 0 mm 4 mps 737 mmHg 31%
    20:00 +19°C° 0 mm 4 mps 738 mmHg 32%
    21:00 +19°C° 0 mm 4 mps 738 mmHg 32%
    22:00 +17°C° 0 mm 5 mps 738 mmHg 33%
    23:00 +17°C° 0 mm 5 mps 738 mmHg 33%

    16 December, Sunday

    Time Temperature Precipitation Wind Pressure Humidity
    00:00 +16°C° 0 mm 5 mps 738 mmHg 34%
    01:00 +16°C° 0 mm 5 mps 738 mmHg 35%
    02:00 +15°C° 0 mm 4 mps 737 mmHg 36%
    03:00 +14°C° 0 mm 4 mps 737 mmHg 36%
    04:00 +14°C° 0 mm 4 mps 737 mmHg 37%
    05:00 +14°C° 0 mm 4 mps 737 mmHg 38%
    06:00 +14°C° 0 mm 5 mps 738 mmHg 38%
    07:00 +15°C° 0 mm 5 mps 738 mmHg 38%
    08:00 +15°C° 0 mm 5 mps 739 mmHg 38%
    09:00 +17°C° 0 mm 5 mps 739 mmHg 35%
    10:00 +21°C° 0 mm 5 mps 739 mmHg 31%
    11:00 +23°C° 0 mm 5 mps 739 mmHg 27%
    12:00 +25°C° 0 mm 5 mps 738 mmHg 25%
    13:00 +26°C° 0 mm 4 mps 737 mmHg 24%
    14:00 +27°C° 0 mm 4 mps 736 mmHg 22%
    15:00 +26°C° 0 mm 4 mps 736 mmHg 23%
    16:00 +25°C° 0 mm 3 mps 736 mmHg 25%
    17:00 +24°C° 0 mm 3 mps 736 mmHg 27%
    18:00 +22°C° 0 mm 3 mps 736 mmHg 28%
    19:00 +20°C° 0 mm 3 mps 737 mmHg 29%
    20:00 +19°C° 0 mm 4 mps 737 mmHg 30%
    21:00 +18°C° 0 mm 4 mps 737 mmHg 31%
    22:00 +18°C° 0 mm 4 mps 737 mmHg 31%
    23:00 +17°C° 0 mm 4 mps 737 mmHg 31%

    17 December, Monday

    Time Temperature Precipitation Wind Pressure Humidity
    00:00 +15°C° 0 mm 4 mps 737 mmHg 31%
    01:00 +15°C° 0 mm 4 mps 737 mmHg 31%
    02:00 +14°C° 0 mm 4 mps 736 mmHg 32%
    03:00 +14°C° 0 mm 4 mps 736 mmHg 32%
    04:00 +14°C° 0 mm 4 mps 736 mmHg 33%
    05:00 +13°C° 0 mm 4 mps 736 mmHg 34%
    06:00 +14°C° 0 mm 4 mps 737 mmHg 34%
    07:00 +14°C° 0 mm 4 mps 737 mmHg 34%
    08:00 +15°C° 0 mm 5 mps 738 mmHg 34%
    09:00 +17°C° 0 mm 5 mps 738 mmHg 30%
    10:00 +20°C° 0 mm 5 mps 738 mmHg 26%
    11:00 +23°C° 0 mm 5 mps 738 mmHg 23%
    12:00 +25°C° 0 mm 5 mps 737 mmHg 21%
    13:00 +26°C° 0 mm 4 mps 736 mmHg 19%
    14:00 +27°C° 0 mm 4 mps 735 mmHg 16%
    15:00 +26°C° 0 mm 4 mps 735 mmHg 18%
    16:00 +25°C° 0 mm 3 mps 735 mmHg 20%
    17:00 +24°C° 0 mm 3 mps 735 mmHg 22%
    18:00 +21°C° 0 mm 3 mps 735 mmHg 23%
    19:00 +20°C° 0 mm 3 mps 736 mmHg 25%
    20:00 +18°C° 0 mm 3 mps 736 mmHg 26%
    21:00 +18°C° 0 mm 3 mps 736 mmHg 27%
    22:00 +17°C° 0 mm 3 mps 736 mmHg 28%
    23:00 +15°C° 0 mm 4 mps 736 mmHg 29%

    18 December, Tuesday

    Time Temperature Precipitation Wind Pressure Humidity
    00:00 +15°C° 0 mm 4 mps 736 mmHg 29%
    01:00 +14°C° 0 mm 4 mps 736 mmHg 30%
    02:00 +14°C° 0 mm 4 mps 736 mmHg 31%
    03:00 +14°C° 0 mm 4 mps 736 mmHg 31%
    04:00 +13°C° 0 mm 4 mps 736 mmHg 32%
    05:00 +13°C° 0 mm 4 mps 736 mmHg 33%
    06:00 +14°C° 0 mm 4 mps 737 mmHg 34%
    07:00 +14°C° 0 mm 4 mps 737 mmHg 34%
    08:00 +15°C° 0 mm 4 mps 738 mmHg 35%
    09:00 +18°C° 0 mm 4 mps 738 mmHg 33%
    10:00 +20°C° 0 mm 4 mps 738 mmHg 32%
    11:00 +23°C° 0 mm 4 mps 738 mmHg 31%
    12:00 +25°C° 0 mm 4 mps 737 mmHg 28%
    13:00 +26°C° 0 mm 3 mps 736 mmHg 26%
    14:00 +27°C° 0 mm 3 mps 735 mmHg 24%
    15:00 +26°C° 0 mm 3 mps 735 mmHg 25%
    16:00 +25°C° 0 mm 3 mps 735 mmHg 26%
    17:00 +25°C° 0 mm 2 mps 734 mmHg 28%
    18:00 +23°C° 0 mm 2 mps 735 mmHg 29%
    19:00 +21°C° 0 mm 3 mps 735 mmHg 31%
    20:00 +19°C° 0 mm 3 mps 736 mmHg 32%
    21:00 +19°C° 0 mm 3 mps 736 mmHg 34%
    22:00 +18°C° 0 mm 3 mps 736 mmHg 35%
    23:00 +17°C° 0 mm 3 mps 736 mmHg 36%
    Show more